DMSP 5D-2 F13 DEB, 40471

Orbit data source: Space-Track

DMSP 5D-2 F13 DEB, 40471 is space debris in SSO originally from a launch on Fri, 24 Mar 1995 UTC launched from the Air Force Western Test Range (AFWTR). Debris objects in space refer to the collection of defunct objects orbiting the Earth. Examples of debris include non-operational satellites, rocket bodies, and fragments generated from explosions, collisions, or faulty payload assembly.

Loading next visibility...
Identifier
40471, 1995-015BP
Orbit
SSO
Country
Flag of USUS
Related business
Manufacturer
Unknown
Mission
Spacecraft
Bus & Motor
Unknown
Mass
Unknown
Launch date (UTC)
1995-03-24 (31 years ago)
Launch vehicle
Unknown
Launch site
Air Force Western Test Range (AFWTR)
Object type
Payload
Rocket body
Debris
Shape & HBR
Unknown shape, 0.1 m
Radar Cross Section
Small (<0.1 m²)

Expand to show TLE details & history
Last TLE update: 1 day ago

TLE from 1 day ago
0 DMSP 5D-2 F13 DEB
1 40471U 95015BP  26070.28392568  .00003823  00000-0  15433-2 0  9998
2 40471  98.8889  98.0364 0020100 237.2918 122.6325 14.28405251568241
Epoch: 2026-03-11T06:48Z
TLE epoch observation values (Epoch: 2026-03-11T06:48:51.178Z)
Latitude
-0.00001°
Longitude
-173.12722°
Altitude
807.786 km
Speed
7.445 km/s
True Right ascension
06h 32m 08s
True Declination
0° 00' 00"
Sunlit
Object was in daylight at epoch
Visualization orbit readout
Latitude
Unknown
Longitude
Unknown
Altitude
Unknown
Speed
Unknown
Apparent Right ascension
Unknown
Apparent Declination
Unknown
Sunlit
N/A
Visualization observer readout
Local Sidereal Time
19:36:34
Azimuth
Unknown
Elevation
Unknown
Doppler factor
Unknown
Orbital elements
Apogee altitude
808.639 km
Perigee altitude
779.806 km
Semi-major axis
7,172.359 km
Eccentricity
0.00201
Inclination
98.8889°
RAAN
98.0364°
Arg. of periapsis
237.2918°
True anomaly
122.82621°
Mean anomaly
122.6325°
Eccentric anomaly
122.72938°
Mean motion
3.57314 °/min
Orbital period
100.75 mins
BSTAR
0.0015433
Loading maneuver chart data...
Computing Atmospheric mass density...

Documentation

Showing up to 5 results
|